Regional Weather Roundup
Issued by NWS Charleston, SC

Current Version | Previous Version | Graphics & Text | Print | Product List | Glossary On
Versions: 1 2 3 4 5 6 7 8 9 10 11 12 13 14 15 16 17 18 19 20 21 22 23 24 25 26 27 28 29 30 31 32 33 34 35 36 37 38 39 40 41 42 43 44 45 46 47 48 49 50
000 ASUS42 KCHS 270227 RWRCHS REGIONAL WEATHER ROUNDUP NATIONAL WEATHER SERVICE CHARLESTON SC 1000 PM EDT TUE MAY 26 2015 NOTE: "FAIR" INDICATES FEW OR NO CLOUDS BELOW 12,000 FEET WITH NO SIGNIFICANT WEATHER AND/OR OBSTRUCTIONS TO VISIBILITY. NOT ALL STATIONS ARE QUALITY CONTROLLED BY THE NATIONAL WEATHER SERVICE. USE DATA WITH CAUTION...ESPECIALLY DEWPOINT OBSERVATIONS. SCZ027-030-031-034>040-042>050-270300- ...SOUTHEAST SOUTH CAROLINA... CITY SKY/WX TMP DP RH WIND PRES REMARKS N CHARLESTON MOCLDY 77 71 82 S8 30.26R WATERFRONT PAR N/A 78 74 87 S10 30.21R MOUNT PLEASANT FAIR 75 73 94 SE3 30.27R JOHNS ISLAND CLOUDY 77 73 88 S9 30.27R PINOPOLIS N/A 79 72 78 VRB3 30.15R MONCKS CORNER MOCLDY 77 72 83 S5 30.26R SUMMERVILLE FAIR 75 72 88 S3 30.27R BEAUFORT MCAS MOCLDY 77 71 82 S7 30.24R BEAUFORT ARPT FAIR 75 72 88 CALM 30.25R HILTON HEAD IS PTCLDY 77 72 83 SE6 30.26R WALTERBORO CLOUDY 73 70 88 SE3 30.26R ALLENDALE MOCLDY 77 70 78 VRB5 30.25R ...SOUTHERN MIDLANDS AND PEE DEE... CITY SKY/WX TMP DP RH WIND PRES REMARKS GEORGETOWN NOT AVBL KINGSTREE NOT AVBL ORANGEBURG CLOUDY 77 68 73 S8 30.24R BARNWELL DRIZZLE 75 66 73 SW8 30.28R AIKEN RAIN 66 64 94 NE3 30.30R MANNING MOCLDY 75 61 60 S6 30.26R COLUMBIA CLOUDY 75 66 73 W13G21 30.23R SUMTER CLOUDY 79 66 64 S9 30.22R FLORENCE MOCLDY 76 69 79 S14 30.23R MYRTLE BEACH MOCLDY 77 68 73 S17 30.27 N MYRTLE BEACH CLOUDY 76 69 79 S9 30.25R $$ GAZ063-065-086>088-099>101-113>116-118-119-134>141-150-270300- ...SOUTHEAST GEORGIA... CITY SKY/WX TMP DP RH WIND PRES REMARKS SAVANNAH ARPT CLOUDY 78 71 79 S7 30.25R HUNTER AAF MOCLDY 77 75 94 SW7 30.23R FORT STEWART CLOUDY 76 70 81 S5 30.24R STATESBORO RAIN 72 70 92 W9 30.29R SYLVANIA CLOUDY 79 73 82 CALM 30.28R CLAXTON CLOUDY 70 70 100 W6 30.28R ...CSRA...CENTRAL AND FAR SOUTHEAST GEORGIA... CITY SKY/WX TMP DP RH WIND PRES REMARKS THOMSON CLOUDY 70 70 100 E3 30.28S AUGUSTA-BUSH CLOUDY 69 68 96 CALM 30.25R AUGUSTA-DANIEL LGT RAIN 70 66 87 CALM 30.26R SWAINSBORO TSTM N/A N/A N/A SE3 30.27R VIDALIA TSTM 70 68 94 CALM 30.27R EASTMAN CLOUDY 71 71 100 SE7 30.26R HAZLEHURST RAIN 70 70 100 CALM 30.24F ALMA RAIN 69 68 96 E5 30.24F FOG WAYCROSS LGT RAIN 70 70 99 CALM 30.23S JESUP MOCLDY 77 70 78 CALM 30.26S BAXLEY RAIN 70 70 100 NE3 30.24F BRUNSWICK CLOUDY 75 70 83 CALM 30.26S SAINT SIMONS NOT AVBL $$ SCZ027-028-034-036>038-045-046-048>050-GAZ119-141-270300- ...LAKE AND SUPPLEMENTAL COASTAL OBSERVATIONS... STATION/POSITION TIME TEMP WIND PRES WAVE SWELL AIR SEA DIR/SP/G HT/PER HT/PER/DIR (UTC) (F) (DEG/KT/KT) (MB) (FT/S) (FT/S/D) UPR LAKE MARION NOT AVBL WINYAH BAY 0100 74 150/ 11 1023.0S LAKE MURRAY 0100 74 110/ 2/ 3 1022.0R ACE BASIN NERRS NOT AVBL FORT PULASKI 0200 77 79 140/ 7/ 11 1024.7R SAPELO ISLAND 0200 78 190/ 8 1024.0R $$ ANZ835-935-AMZ111-154-330-350-352-354-370-450-454-472-270300- ...C-MAN AND BUOY OBSERVATIONS... STATION/POSITION TIME TEMP WIND PRES WAVE SWELL AIR SEA DIR/SP/G HT/PER HT/PER/DIR (UTC) (F) (DEG/KT/KT) (MB) (FT/S) (FT/S/D) BUOY 41004 0150 78 76 160/ 12/ 14 1024.0R 4/ 6 2/ 6 BUOY 41008 0150 78 78 150/ 10/ 12 1024.1R 3/ 7 2/ 90/ 7 FOLLY BEACH CMAN 0200 78 170/ 13/ 16 1024.8R CAPERS NEARSHORE 0108 76 160/ 10/ 14 1023.9F FRIPP NEARSHORE 0100 77 160/ 14/ 17 1023.1S STATION/POSITION TIME TEMP WIND PRES WAVE SWELL AIR SEA DIR/SP/G HT/PER HT/PER/DIR (UTC) (F) (DEG/KT/KT) (MB) (FT/S) (FT/S/D) 5E ST. MARYS GA 0121 79 N/A 3/ 4 FRYING PAN BUOY 0150 77 75 160/ 12/ 14 1025.3F 4/ 6 2/110/ 7 BUOY 41025 0150 74 76 170/ 16/ 19 1025.9R 3/ 5 2/130/ 7 CAPE LOOKOUT NC 0200 74 170/ 13/ 15 1025.5R BUOY 41002 0150 73 74 110/ 14/ 16 1026.1R 4/ 6 2/140/11 BUOY 41010 0120 78 81 90/ 12/ 16 1023.3R ST AUGUSTINE FL 0200 78 81 130/ 15/ 16 1023.9R $$

USA.gov is the U.S. government's official web portal to all federal, state and local government web resources and services.